Home > Weather > Saint-Denis > Past weeks

Flag for France Weather for the Past 2 Weeks in Saint-Denis, France

Now
39 °F

Mostly cloudy.


Feels Like: 36 °F
Forecast: 34 / 43 °F
Wind: 5 mph from Northwest

Location: Paris Le Bourget Airport

Current Time: Feb 15, 2016 at 12:38:20 AM

Latest Report: Feb 15, 2016 at 12:00 AM


Visibility: N/A

Pressure: 29.65 "Hg

Humidity: 81%

Dew point: 34 °F

Location of Saint-DenisLocation

Historic Weather in Saint-Denis — Graph

°F

Saint-Denis Temperature Yesterday

Maximum temperature yesterday: 46 °F (at 12:30 PM)
Minimum temperature yesterday: 37 °F (at 9:30 PM)
Average temperature yesterday: 42 °F

High & Low Weather Summary for the Past Weeks

 TemperatureHumidityPressure
High57 °F (Feb 6, 3:00 PM)100% (Jan 31, 9:30 AM)30.45 "Hg (Jan 31, 9:30 AM)
Low36 °F (Feb 13, 1:30 AM)48% (Feb 6, 4:30 PM)28.88 "Hg (Feb 13, 3:30 PM)
Average46 °F80%29.76 "Hg
* Reported Jan 30 11:00 PM — Feb 14 11:00 PM, Saint-Denis, Weather by CustomWeather, © 2016

Note: Actual official high and low records may vary slightly from our data, if they occured in-between our weather recording intervals... More about our weather records

Advertising

Saint-Denis Weather History for the Previous 24 Hours

 ConditionsComfort  
Time TempWeatherWind HumidityBarometerVisibility
11:00 PM
Sun, Feb 14
37 °FPassing clouds.6 mph87%29.62 "HgN/A
10:30 PM37 °FPassing clouds.7 mph87%29.62 "HgN/A
10:00 PM37 °FPassing clouds.7 mph87%29.59 "HgN/A
9:30 PM37 °FClear.6 mph87%29.59 "Hg10 mi
9:00 PM39 °FPassing clouds.7 mph81%29.56 "HgN/A
8:30 PM39 °FPassing clouds.8 mph81%29.53 "HgN/A
8:00 PM39 °FPassing clouds.12 mph81%29.50 "HgN/A
7:30 PM41 °FPassing clouds.10 mph76%29.47 "HgN/A
7:00 PM41 °FPartly cloudy.6 mph76%29.47 "HgN/A
6:30 PM41 °FPassing clouds.8 mph76%29.45 "HgN/A
6:00 PM43 °FScattered clouds.7 mph71%29.42 "HgN/A
5:30 PM43 °FBroken clouds.9 mph71%29.39 "HgN/A
5:00 PM43 °FPartly sunny.7 mph76%29.39 "HgN/A
4:30 PM43 °FBroken clouds.8 mph81%29.36 "HgN/A
4:00 PM43 °FBroken clouds.6 mph81%29.33 "HgN/A
3:30 PM43 °FPartly sunny.8 mph81%29.33 "HgN/A
3:00 PM43 °FMostly cloudy.10 mph81%29.30 "HgN/A
2:30 PM45 °FCloudy.8 mph76%29.30 "HgN/A
2:00 PM46 °FMostly cloudy.7 mph71%29.27 "HgN/A
1:30 PM46 °FBroken clouds.8 mph71%29.27 "HgN/A
1:00 PM46 °FPartly sunny.6 mph71%29.27 "HgN/A
12:30 PM46 °FPartly sunny.6 mph71%29.27 "HgN/A
12:00 PM45 °FPartly sunny.7 mph76%29.24 "HgN/A
11:30 AM45 °FPartly sunny.7 mph76%29.24 "HgN/A
11:00 AM45 °FScattered clouds.6 mph81%29.24 "HgN/A
10:30 AM43 °FBroken clouds.5 mph87%29.21 "HgN/A
10:00 AM43 °FMostly cloudy.6 mph87%29.21 "HgN/A
9:30 AM43 °FMostly cloudy.6 mph87%29.21 "HgN/A
9:00 AM41 °FMore clouds than sun.5 mph93%29.21 "HgN/A
8:30 AM41 °FMostly cloudy.3 mph87%29.18 "HgN/A
8:00 AM39 °FPassing clouds.3 mph93%29.18 "HgN/A
7:30 AM39 °FPassing clouds.7 mph93%29.18 "HgN/A
7:00 AM41 °FPartly cloudy.3 mph87%29.18 "HgN/A
6:30 AM41 °FPassing clouds.6 mph87%29.18 "HgN/A
6:00 AM43 °FMostly cloudy.6 mph87%29.18 "HgN/A
5:30 AM43 °FOvercast.6 mph87%29.18 "HgN/A
5:00 AM43 °FOvercast.7 mph87%29.15 "HgN/A
4:30 AM43 °FMostly cloudy.6 mph87%29.15 "HgN/A
4:00 AM43 °FMostly cloudy.6 mph87%29.15 "HgN/A
3:30 AM43 °FMostly cloudy.9 mph87%29.15 "HgN/A
3:00 AM43 °FMostly cloudy.7 mph87%29.15 "HgN/A
2:30 AM43 °FMostly cloudy.9 mph87%29.15 "HgN/A
2:00 AM43 °FMostly cloudy.8 mph87%29.15 "HgN/A
1:30 AM43 °FPassing clouds.10 mph87%29.12 "HgN/A
1:00 AM45 °FLight rain. Mostly cloudy.13 mph81%29.12 "HgN/A
12:30 AM45 °FDrizzle. Mostly cloudy.15 mph87%29.12 "HgN/A
12:00 AM45 °FMostly cloudy.10 mph87%29.09 "HgN/A
Weather by CustomWeather, © 2016

See weather overviewHow to use our weather pages